www.pogodaiklimat.ru

ПОГОДА в Санта-Ане, CA

  • Прогноз погоды в Санта-Ане
  • Монитор погоды в Санта-Ане
  • Климат в Санта-Ане

АРХИВ ПОГОДЫ в Санта-Ане

Время (UTC), дата Ветер
(напр.,м/с)
 
Видим.   Явления Облачность Т
(С)
Тd
(С)
f
(%)
Тe
(С)
Тes
(С)
Комфортность

P
(гПа)

Po
(гПа)
Тmin
(С)
Tmax
(С)
R
(мм)
SD
(см)
10:53 20.03 В  16 км    10/10 510 м  +14.4  +10.6  78  +13  +13    1015.5  1013.5  +14.4  +15.0     
11:53 20.03 ЮВ  16 км    10/10 1650 м  +14.4  +10.0  75  +13  +13    1015.9  1013.9         
12:53 20.03 нст  16 км    10/8 1650 м
[средняя] 
+14.4  +10.0  75  +14  +14    1016.1  1014.2         
13:53 20.03 ЮВ  16 км  слабый дождь  8/8 900 м  +15.0  +9.4  69  +14  +14    1017.0  1014.9         
14:53 20.03 ЮВ  16 км    8/2 1050 м
[средняя] 
+15.6  +10.0  69  +15  +15    1017.5  1015.6         
15:53 20.03 Ю  16 км    8/2 1050 м
[средняя] 
+16.1  +10.6  70  +16  +17    1017.5  1015.6         
16:53 20.03 Ю  16 км    8/5 840 м
[средняя] 
+17.8  +9.4  58  +17  +19    1017.7  1015.9  +14.4  +17.8     
17:53 20.03 Ю  16 км    8/8 630 м
[средняя] 
+17.8  +11.1  65  +17  +18    1017.5  1015.6         
18:53 20.03 Ю  16 км    8/5 690 м
[средняя] 
+16.7  +10.6  67  +16  +17    1017.2  1015.2         
19:53 20.03 ЮЗ  16 км    8/5 1050 м
[средняя] 
+18.3  +9.4  56  +18  +20    1016.6  1014.5         
20:53 20.03 Ю  16 км    8/5 1050 м
[средняя] 
+17.8  +9.4  58  +17  +18    1016.2  1014.2         
21:53 20.03 ЮЗ  4
{8} 
16 км    8/8 690 м
[средняя] 
+17.2  +10.0  63  +17  +18    1016.5  1014.5         
22:53 20.03 З  4
{8} 
16 км    8/8 660 м
[средняя] 
+17.8  +10.0  60  +17  +18    1016.6  1014.5  +16.7  +18.9     
23:33 20.03 З  4
{9} 
16 км  гроза  5/2 750 м
[средняя] 
+17.2  +9.4  60  +17  +18      1014.5         
23:48 20.03 З  16 км    5/2 750 м
[средняя] 
+17.0  +9.0  59  +16  +17      1014.9         
23:53 20.03 З  16 км    5/2 750 м
[средняя] 
+16.7  +9.4  62  +16  +17    1016.8  1014.9         
00:53 21.03 З  16 км    5/2 750 м
[средняя] 
+15.6  +8.9  64  +15  +15    1017.1  1015.2         
01:53 21.03 З  16 км    2/2 750 м
[средняя] 
+15.0  +8.9  67  +15  +15    1017.4  1015.6         
02:53 21.03 нст  16 км    2/2 600 м
[средняя] 
+14.4  +10.0  75  +14  +14    1018.1  1016.2         
03:53 21.03 З  16 км    2/2 600 м
[средняя] 
+13.9  +10.0  77  +14  +14    1018.5  1016.6         
04:53 21.03   16 км    5/2 600 м
[средняя] 
+13.9  +10.0  77  +14  +14    1018.7  1016.6  +13.9  +17.8     
05:53 21.03 ЮЗ  16 км    8/8 480 м  +13.9  +10.0  77  +13  +13    1018.8  1016.9         
06:53 21.03 нст  16 км    8/8 750 м  +13.9  +9.4  74  +13  +13    1019.1  1017.3         
07:20 21.03 З  16 км    10/10 690 м  +13.9  +8.9  72  +13  +13      1017.3         
07:40 21.03 З  16 км    8/8 630 м  +13.9  +7.8  67  +13  +13      1017.3         
07:53 21.03 нст  16 км    2/2 1290 м  +13.9  +7.8  67  +13  +13    1019.2  1017.3         
08:53 21.03   16 км    ясно  +13.3  +7.2  67  +13  +13    1019.2  1017.3         
09:53 21.03   16 км    2/2 690 м  +12.8  +7.2  69  +12  +12    1019.3  1017.3         
10:53 21.03 Ю  16 км    5/5 810 м  +12.2  +7.2  71  +12  +12    1019.6  1017.6  +11.7  +13.9     
11:01 21.03 Ю  16 км    8/8 810 м  +12.2  +7.2  71  +12  +12      1017.6         
11:17 21.03 Ю  16 км    8/8 780 м  +12.2  +7.2  71  +12  +12      1017.9         
11:53 21.03 Ю  16 км    8/8 750 м  +12.2  +7.8  74  +12  +12    1019.8  1017.9         
12:53 21.03 нст  16 км    8/8 750 м
[средняя] 
+13.3  +7.2  67  +13  +13    1020.2  1018.3         
13:37 21.03   16 км    8/8 810 м  +13.3  +7.8  69  +13  +13      1018.3         
13:53 21.03   16 км    8/8 810 м
[средняя] 
+13.3  +8.3  72  +13  +13    1020.4  1018.6         
14:53 21.03 нст  16 км    8/5 690 м
[средняя] 
+13.9  +8.3  69  +13  +14    1020.7  1018.6         
15:53 21.03 нст  16 км    8/5 720 м
[средняя] 
+14.4  +8.3  67  +13  +14    1020.3  1018.3         
16:53 21.03 ЮЗ  16 км    8/8 840 м  +15.0  +7.2  60  +14  +16    1020.6  1018.6  +12.2  +16.1     
17:53 21.03 Ю  13 км  слабый дождь  8/8 960 м  +13.9  +7.8  67  +13  +14    1020.8  1018.9         
18:28 21.03   6 км  слабый дождь  10/10 690 м  +13.3  +8.3  72  +13  +13      1018.9         
18:53 21.03 ЮЗ  5 км  дождь  10/10 690 м  +12.2  +9.4  83  +11  +11    1020.8  1018.9         
19:00 21.03 ЮЗ  3 км  дождь  10/8 510 м
[средняя] 
+12.8  +9.4  80  +12  +13      1018.6         
19:07 21.03 ЮЗ  6 км  слабый дождь  10/10 510 м  +12.8  +9.4  80  +12  +12      1018.6         
19:53 21.03 ЮВ  11 км  слабый дождь  10/10 450 м  +13.3  +9.4  77  +13  +13    1020.1  1018.3      2.5   
20:53 21.03   16 км    8/8 540 м  +15.6  +9.4  67  +15  +19    1019.5  1017.6         
21:53 21.03 Ю  16 км    8/8 630 м  +16.1  +8.3  60  +15  +15    1019.2  1017.3         
22:53 21.03 ЮЗ  16 км    5/5 630 м
[средняя] 
+15.6  +8.3  62  +14  +16    1019.3  1017.3  +12.2  +16.7  2.8   
23:53 21.03 ЮЗ  16 км    5/2 630 м
[средняя] 
+15.0  +8.3  64  +14  +15    1019.5  1017.6         

 

Местоположение метеостанции John Wayne Airport: широта 33.6800 долгота -117.8664 высота над уровнем моря 16 м.

В архиве по умолчанию представлена погода в Санта-Ане за последние 1-2 суток. Обновление информации о фактической погоде в базе происходит ежечасно! Архивные данные за месяц целиком и за предыдущие месяцы Вы можете получить, выбрав интересующий диапазон дат из раскрывающегося списка и нажав кнопку "Ввод!".

Внимание! Архив погоды МЕТАР в базе сайта хранится не более 60 дней. Нет смысла пытаться выбрать более раннюю дату.

Внимание! Время в таблицах - всемирное. Для получения местного времени необходимо прибавить поправку, которая в Санта-Ане равна -8 ч.

Ветер - указаны скорость ветра в м/с и направление, откуда дует ветер: С - северный, СВ - северо-восточный, В - восточный, ЮВ - юго-восточный, Ю - южный, ЮЗ - юго-западный, З - западный, СЗ - северо-западный.
Видимость - горизонтальная дальность видимости в метрах или километрах. При видимости от 1 до 10 км при отсутствии осадков обычно наблюдается дымка, при ухудшении видимости до 1 км и менее - туман. В сухую погоду видимость может ухудшаться дымом, пылью или мглою.
Атмосферные явления - указаны явления, наблюдавшиеся в указанный момент времени.
Облачность - указаны через наклонную черту верхняя и нижняя облачность в баллах и высота нижней границы облаков в метрах. Внимание: облачность, как и прочие метеорологические величины в США измеряются автоматическими метеостанциями. Указанные значения в баллах носят условный характер и показывают процент времени, в течение которого, в среднем, лазерный луч высотомера отражался от облаков обратно.
T - Температура воздуха - температура, измеренная на высоте 2 м над землей.
Td - Температура точки росы - температура, при понижении до которой содержащийся в воздухе водяной пар достигнет насыщения.
f - Относительная влажность воздуха - влажноcть воздуха, измеренная на высоте 2 м над землей.
Te - Эффективная температура - температура, которую ощущает одетый по сезону человек в тени. Характеристика душности погоды. При расчете учитывается влияние влажности воздуха и скорости ветра на теплоощущения человека.
Tes - Эффективная температура на солнце - температура, которую ощущает человек, с поправкой на солнечный нагрев. Характеристика знойности погоды. Зависит от высоты солнца над горизонтом, облачности и скорости ветра. Ночью, в пасмурную погоду, а также при ветре 12 м/с и более поправка равна нулю.
P - Атмосферное давление - приведенное к уровню моря атмосферное давление.
Po - Атмосферное давление - измеренное на уровне метеостанции атмосферное давление.
Tmin - Минимальная температура - минимум температуры воздуха на высоте 2 м над землей.
Tmax - Максимальная температура - максимум температуры воздуха на высоте 2 м над землей.
R - Количество осадков - Количество выпавших осадков за 3 или 6 часов, мм.
SD - Снежный покров - Высота снежного покрова, см.